EW9066 Weather Reports


time (UTC)temp
C
wind
direction
speed
KPH
gust
KPH
rain 1hr
cm
rain 24hr
cm
rain mn
cm
humidity
%
barometer
mb
20260504081537 9 72 1.6 9.7 0.00 0.00 0.00 43 1010.7
20260504050104 13 74 0.0 6.4 0.00 0.00 0.00 29 1004.0
20260504043052 13 193 3.2 9.7 0.00 0.00 0.00 28 1003.7
20260504041549 14 199 4.8 11.3 0.00 0.00 0.00 26 1003.6
20260504040051 14 360 1.6 9.7 0.00 0.00 0.00 26 1003.7
20260504033042 15 282 3.2 4.8 0.00 0.00 0.00 24 1003.4
20260504031544 15 299 1.6 6.4 0.00 0.00 0.00 23 1003.3
20260504030037 16 300 0.0 4.8 0.00 0.00 0.00 21 1003.0
20260504023033 19 304 1.6 6.4 0.00 0.00 0.00 17 1002.8
20260504021528 21 304 1.6 4.8 0.00 0.00 0.00 15 1002.8
20260504020025 22 304 1.6 6.4 0.00 0.00 0.00 14 1002.8
20260504013026 22 304 6.4 11.3 0.00 0.00 0.00 13 1002.8
20260504011518 22 326 6.4 16.1 0.00 0.00 0.00 11 1002.9
20260504010015 23 304 4.8 14.5 0.00 0.00 0.00 11 1003.0
20260504003015 23 310 6.4 14.5 0.00 0.00 0.00 12 1003.3
20260504001513 24 344 11.3 19.3 0.00 0.00 0.00 10 1003.3
20260504000031 25 319 11.3 19.3 0.00 0.00 0.00 9 1003.4
20260503233007 25 360 6.4 12.9 0.00 0.00 0.00 10 1003.5
20260503231502 25 360 9.7 17.7 0.00 0.00 0.00 9 1003.8
20260503230103 25 360 3.2 16.1 0.00 0.00 0.00 9 1003.8
20260503223057 25 360 11.3 16.1 0.00 0.00 0.00 10 1004.2
20260503221558 25 360 3.2 16.1 0.00 0.00 0.00 11 1004.3
20260503220051 24 346 14.5 33.8 0.00 0.00 0.00 12 1004.7
20260503213050 24 276 6.4 17.7 0.00 0.00 0.00 12 1005.1
20260503211554 24 340 9.7 24.1 0.00 0.00 0.00 13 1005.6
20260503210047 23 360 6.4 24.1 0.00 0.00 0.00 12 1005.8
20260503203057 23 360 8.0 24.1 0.00 0.00 0.00 14 1006.2
20260503201540 23 360 9.7 20.9 0.00 0.00 0.00 15 1006.5
20260503200038 22 360 6.4 19.3 0.00 0.00 0.00 18 1006.6
20260503193034 22 360 6.4 22.5 0.00 0.00 0.00 17 1007.1
20260503191532 22 360 4.8 17.7 0.00 0.00 0.00 17 1007.4
20260503190037 22 360 8.0 16.1 0.00 0.00 0.00 18 1007.6
20260503183029 21 360 9.7 17.7 0.00 0.00 0.00 18 1008.0
20260503181527 21 274 0.0 16.1 0.00 0.00 0.00 21 1008.3
20260503180028 21 360 9.7 20.9 0.00 0.00 0.00 20 1008.5
20260503173036 20 360 3.2 14.5 0.00 0.00 0.00 19 1008.7
20260503171518 20 360 6.4 16.1 0.00 0.00 0.00 23 1008.9